This is the latest recevied weather packets stored in our database for station/object N7IGG. If no packets are shown the sender has not sent any weather packets the latest 10 day(s).
| Time | Temp. | Humidity | Pressure | Rain* | Wind** | Luminosity | Snow |
|---|---|---|---|---|---|---|---|
| 1777408218 | 12.78° C | 75% | 1022.9 hPa | 0 mm | - | 154 W/m² | - |
| 1777407914 | 12.22° C | 75% | 1022.7 hPa | 0 mm | - | 150 W/m² | - |
| 1777407612 | 12.22° C | 75% | 1023.1 hPa | 0 mm | - | 148 W/m² | - |
| 1777407312 | 12.22° C | 75% | 1023 hPa | 0 mm | - | 169 W/m² | - |
| 1777407006 | 12.22° C | 75% | 1022.9 hPa | 0 mm | - | 161 W/m² | - |
| 1777406701 | 12.22° C | 75% | 1025.8 hPa | 0 mm | - | 146 W/m² | - |
| 1777406397 | 12.22° C | 77% | 1025.6 hPa | 0 mm | - | 169 W/m² | - |
| 1777406097 | 12.22° C | 77% | 1025.6 hPa | 0 mm | - | 194 W/m² | - |
| 1777405793 | 12.22° C | 77% | 1025.7 hPa | 0 mm | - | 180 W/m² | - |
| 1777405489 | 12.22° C | 78% | 1025.7 hPa | 0 mm | - | 192 W/m² | - |
| 1777405187 | 12.22° C | 78% | 1025.6 hPa | 0 mm | - | 191 W/m² | - |
| 1777404884 | 12.22° C | 79% | 1025.5 hPa | 0 mm | - | 184 W/m² | - |
| 1777404582 | 12.22° C | 79% | 1025.4 hPa | 0 mm | - | 192 W/m² | - |
| 1777404278 | 11.67° C | 80% | 1025.4 hPa | 0 mm | - | 219 W/m² | - |
| 1777403974 | 11.67° C | 80% | 1025.6 hPa | 0 mm | - | 209 W/m² | - |
| 1777403674 | 11.67° C | 81% | 1025.5 hPa | 0 mm | - | 184 W/m² | - |
| 1777403373 | 11.67° C | 81% | 1025.6 hPa | 0 mm | - | 158 W/m² | - |
| 1777403068 | 11.67° C | 82% | 1025.5 hPa | 0 mm | - | 152 W/m² | - |
| 1777402764 | 11.67° C | 82% | 1027.5 hPa | 0 mm | - | 154 W/m² | - |
| 1777402460 | 11.67° C | 82% | 1022.8 hPa | 0 mm | - | 147 W/m² | - |
| 1777402158 | 11.11° C | 82% | 1022.9 hPa | 0 mm | - | 133 W/m² | - |
| 1777401852 | 11.11° C | 82% | 1025.2 hPa | 0 mm | - | 142 W/m² | - |
| 1777401552 | 11.11° C | 82% | 1025 hPa | 0 mm | - | 124 W/m² | - |
| 1777401248 | 11.11° C | 83% | 1025.1 hPa | 0 mm | - | 132 W/m² | - |
| 1777400944 | 11.11° C | 83% | 1025 hPa | 0 mm | - | 135 W/m² | - |
* Rain latest hour (hover to see other rain measurements)
** Current wind speed in m/s (hover to see current wind gust speed)